Time,TemperatureF,DewpointF,PressureIn,WindDirection,WindDirectionDegrees,WindSpeedMPH,WindSpeedGustMPH,Humidity,HourlyPrecipIn,Conditions,Clouds,dailyrainin,SoftwareType,DateUTC
2013-02-07 00:00:00,21.1,16.8,30.35,NNE,32,0.0,0.0,83,0.00,,CLR,0.00,VWS V14.01,2013-02-07 05:00:00,
2013-02-07 00:01:00,21.1,16.8,30.35,NNE,13,1.0,2.0,83,0.00,,CLR,0.00,VWS V14.01,2013-02-07 05:01:00,
2013-02-07 00:06:00,21.0,16.7,30.36,NNE,14,0.0,2.0,83,0.00,,CLR,0.00,VWS V14.01,2013-02-07 05:06:00,
2013-02-07 00:11:00,20.9,16.6,30.36,NNE,15,0.0,2.0,83,0.00,,CLR,0.00,VWS V14.01,2013-02-07 05:11:00,
2013-02-07 00:16:00,20.5,16.2,30.36,NNE,14,0.0,2.0,83,0.00,,CLR,0.00,VWS V14.01,2013-02-07 05:16:00,
2013-02-07 00:21:00,20.3,16.0,30.36,NNE,15,0.0,2.0,83,0.00,,CLR,0.00,VWS V14.01,2013-02-07 05:21:00,
2013-02-07 00:26:00,20.2,16.1,30.37,NNE,14,0.0,2.0,84,0.00,,CLR,0.00,VWS V14.01,2013-02-07 05:26:00,
2013-02-07 00:31:00,20.1,16.0,30.37,NNE,14,0.0,0.0,84,0.00,,CLR,0.00,VWS V14.01,2013-02-07 05:31:00,
2013-02-07 00:36:00,20.0,15.9,30.36,NNE,14,0.0,0.0,84,0.00,,CLR,0.00,VWS V14.01,2013-02-07 05:36:00,
2013-02-07 00:41:00,20.0,15.9,30.36,NNE,14,0.0,0.0,84,0.00,,CLR,0.00,VWS V14.01,2013-02-07 05:41:00,
2013-02-07 00:46:00,20.1,16.0,30.36,East,89,0.0,0.0,84,0.00,,CLR,0.00,VWS V14.01,2013-02-07 05:46:00,
2013-02-07 00:51:00,20.0,15.9,30.36,NNE,29,0.0,0.0,84,0.00,,CLR,0.00,VWS V14.01,2013-02-07 05:51:00,
2013-02-07 00:56:00,20.0,16.2,30.36,NNE,29,0.0,0.0,85,0.00,,CLR,0.00,VWS V14.01,2013-02-07 05:56:00,
2013-02-07 01:01:00,20.0,15.9,30.36,NNE,23,3.0,3.0,84,0.00,,CLR,0.00,VWS V14.01,2013-02-07 06:01:00,
2013-02-07 01:06:00,20.0,15.7,30.36,NE,43,1.0,3.0,83,0.00,,CLR,0.00,VWS V14.01,2013-02-07 06:06:00,
2013-02-07 01:11:00,20.0,15.7,30.36,East,95,0.0,3.0,83,0.00,,CLR,0.00,VWS V14.01,2013-02-07 06:11:00,
2013-02-07 01:16:00,19.8,15.5,30.36,NNE,31,2.0,3.0,83,0.00,,CLR,0.00,VWS V14.01,2013-02-07 06:16:00,
2013-02-07 01:21:00,19.7,15.4,30.36,NE,34,0.0,3.0,83,0.00,,CLR,0.00,VWS V14.01,2013-02-07 06:21:00,
2013-02-07 01:26:00,19.6,15.3,30.36,East,91,0.0,3.0,83,0.00,,CLR,0.00,VWS V14.01,2013-02-07 06:26:00,
2013-02-07 01:31:00,19.5,15.5,30.36,East,91,0.0,0.0,84,0.00,,CLR,0.00,VWS V14.01,2013-02-07 06:31:00,
2013-02-07 01:36:00,19.4,15.4,30.36,East,92,0.0,0.0,84,0.00,,CLR,0.00,VWS V14.01,2013-02-07 06:36:00,
2013-02-07 01:41:00,19.3,15.3,30.36,East,91,0.0,0.0,84,0.00,,CLR,0.00,VWS V14.01,2013-02-07 06:41:00,
2013-02-07 01:46:00,19.2,15.2,30.36,East,90,0.0,0.0,84,0.00,,CLR,0.00,VWS V14.01,2013-02-07 06:46:00,
2013-02-07 01:51:00,19.2,15.2,30.36,NE,39,1.0,2.0,84,0.00,,CLR,0.00,VWS V14.01,2013-02-07 06:51:00,
2013-02-07 01:56:00,19.1,15.3,30.36,NE,39,0.0,2.0,85,0.00,,CLR,0.00,VWS V14.01,2013-02-07 06:56:00,
2013-02-07 02:01:00,18.9,15.1,30.37,NE,39,0.0,0.0,85,0.00,,CLR,0.00,VWS V14.01,2013-02-07 07:01:00,
2013-02-07 02:06:00,18.8,15.1,30.37,NNE,33,2.0,2.0,85,0.00,,CLR,0.00,VWS V14.01,2013-02-07 07:06:00,
2013-02-07 02:11:00,18.8,15.1,30.39,ENE,67,2.0,3.0,85,0.00,,CLR,0.00,VWS V14.01,2013-02-07 07:11:00,
2013-02-07 02:16:00,18.8,15.1,30.39,East,89,2.0,5.0,85,0.00,,CLR,0.00,VWS V14.01,2013-02-07 07:16:00,
2013-02-07 02:21:00,18.8,14.8,30.39,NE,39,2.0,5.0,84,0.00,,CLR,0.00,VWS V14.01,2013-02-07 07:21:00,
2013-02-07 02:26:00,18.7,14.9,30.39,NE,39,2.0,5.0,85,0.00,,CLR,0.00,VWS V14.01,2013-02-07 07:26:00,
2013-02-07 02:31:00,18.7,14.9,30.40,NNE,29,2.0,3.0,85,0.00,,CLR,0.00,VWS V14.01,2013-02-07 07:31:00,
2013-02-07 02:36:00,18.8,15.1,30.40,NNE,31,0.0,3.0,85,0.00,,CLR,0.00,VWS V14.01,2013-02-07 07:36:00,
2013-02-07 02:41:00,18.7,14.7,30.40,NNW,346,0.0,3.0,84,0.00,,CLR,0.00,VWS V14.01,2013-02-07 07:41:00,
2013-02-07 02:46:00,18.5,14.5,30.40,NNW,345,0.0,3.0,84,0.00,,CLR,0.00,VWS V14.01,2013-02-07 07:46:00,
2013-02-07 02:51:00,18.4,14.6,30.40,ESE,108,2.0,3.0,85,0.00,,CLR,0.00,VWS V14.01,2013-02-07 07:51:00,
2013-02-07 02:56:00,18.5,14.8,30.39,NE,41,3.0,4.0,85,0.00,,CLR,0.00,VWS V14.01,2013-02-07 07:56:00,
2013-02-07 03:01:00,18.7,14.9,30.39,ENE,62,2.0,3.0,85,0.00,,CLR,0.00,VWS V14.01,2013-02-07 08:01:00,
2013-02-07 03:06:00,18.6,14.6,30.39,NNE,33,3.0,4.0,84,0.00,,CLR,0.00,VWS V14.01,2013-02-07 08:06:00,
2013-02-07 03:11:00,18.5,14.8,30.39,North,11,3.0,4.0,85,0.00,,CLR,0.00,VWS V14.01,2013-02-07 08:11:00,
2013-02-07 03:16:00,18.4,14.6,30.40,NE,54,1.0,4.0,85,0.00,,CLR,0.00,VWS V14.01,2013-02-07 08:16:00,
2013-02-07 03:21:00,18.3,14.6,30.40,ESE,113,1.0,4.0,85,0.00,,CLR,0.00,VWS V14.01,2013-02-07 08:21:00,
2013-02-07 03:26:00,18.2,14.5,30.40,ENE,75,0.0,4.0,85,0.00,,CLR,0.00,VWS V14.01,2013-02-07 08:26:00,
2013-02-07 03:31:00,18.2,14.5,30.40,NE,39,1.0,2.0,85,0.00,,CLR,0.00,VWS V14.01,2013-02-07 08:31:00,
2013-02-07 03:36:00,18.1,14.4,30.40,East,97,1.0,2.0,85,0.00,,CLR,0.00,VWS V14.01,2013-02-07 08:36:00,
2013-02-07 03:41:00,18.2,14.7,30.40,NNE,26,1.0,4.0,86,0.00,,CLR,0.00,VWS V14.01,2013-02-07 08:41:00,
2013-02-07 03:46:00,18.2,14.5,30.40,NNE,24,4.0,6.0,85,0.00,,CLR,0.00,VWS V14.01,2013-02-07 08:46:00,
2013-02-07 03:51:00,18.2,14.5,30.40,NE,41,1.0,6.0,85,0.00,,CLR,0.00,VWS V14.01,2013-02-07 08:51:00,
2013-02-07 03:56:00,18.2,14.2,30.41,NE,36,1.0,6.0,84,0.00,,CLR,0.00,VWS V14.01,2013-02-07 08:56:00,
2013-02-07 04:01:00,18.2,14.2,30.41,NE,36,2.0,2.0,84,0.00,,CLR,0.00,VWS V14.01,2013-02-07 09:01:00,
2013-02-07 04:06:00,18.1,14.1,30.41,ENE,76,0.0,5.0,84,0.00,,CLR,0.00,VWS V14.01,2013-02-07 09:06:00,
2013-02-07 04:11:00,18.0,14.0,30.40,NE,50,1.0,5.0,84,0.00,,CLR,0.00,VWS V14.01,2013-02-07 09:11:00,
2013-02-07 04:16:00,17.9,14.2,30.40,NE,42,2.0,5.0,85,0.00,,CLR,0.00,VWS V14.01,2013-02-07 09:16:00,
2013-02-07 04:21:00,17.8,14.1,30.40,East,83,0.0,5.0,85,0.00,,CLR,0.00,VWS V14.01,2013-02-07 09:21:00,
2013-02-07 04:26:00,17.7,14.0,30.41,ENE,60,0.0,5.0,85,0.00,,CLR,0.00,VWS V14.01,2013-02-07 09:26:00,
2013-02-07 04:31:00,17.7,14.2,30.41,ENE,60,0.0,0.0,86,0.00,,CLR,0.00,VWS V14.01,2013-02-07 09:31:00,
2013-02-07 04:36:00,17.8,14.3,30.41,East,91,0.0,0.0,86,0.00,,CLR,0.00,VWS V14.01,2013-02-07 09:36:00,
2013-02-07 04:41:00,17.7,14.2,30.41,East,91,0.0,0.0,86,0.00,,CLR,0.00,VWS V14.01,2013-02-07 09:41:00,
2013-02-07 04:46:00,17.7,14.2,30.41,NNE,14,0.0,2.0,86,0.00,,CLR,0.00,VWS V14.01,2013-02-07 09:46:00,
2013-02-07 04:51:00,17.8,14.3,30.41,NE,44,1.0,3.0,86,0.00,,CLR,0.00,VWS V14.01,2013-02-07 09:51:00,
2013-02-07 04:56:00,17.9,14.4,30.41,NE,44,1.0,3.0,86,0.00,,CLR,0.00,VWS V14.01,2013-02-07 09:56:00,
2013-02-07 05:01:00,17.9,14.2,30.41,East,86,0.0,0.0,85,0.00,,CLR,0.00,VWS V14.01,2013-02-07 10:01:00,
2013-02-07 05:06:00,17.9,14.2,30.41,ENE,78,1.0,2.0,85,0.00,,CLR,0.00,VWS V14.01,2013-02-07 10:06:00,
2013-02-07 05:11:00,17.9,14.2,30.41,NE,51,0.0,2.0,85,0.00,,CLR,0.00,VWS V14.01,2013-02-07 10:11:00,
2013-02-07 05:16:00,17.9,14.2,30.41,NE,50,0.0,2.0,85,0.00,,CLR,0.00,VWS V14.01,2013-02-07 10:16:00,
2013-02-07 05:21:00,17.8,14.1,30.41,NE,50,0.0,2.0,85,0.00,,CLR,0.00,VWS V14.01,2013-02-07 10:21:00,
2013-02-07 05:26:00,17.6,13.9,30.41,NE,37,0.0,2.0,85,0.00,,CLR,0.00,VWS V14.01,2013-02-07 10:26:00,
2013-02-07 05:31:00,17.5,14.0,30.42,NE,37,0.0,0.0,86,0.00,,CLR,0.00,VWS V14.01,2013-02-07 10:31:00,
2013-02-07 05:36:00,17.5,14.0,30.41,NE,43,0.0,0.0,86,0.00,,CLR,0.00,VWS V14.01,2013-02-07 10:36:00,
2013-02-07 05:41:00,17.4,13.9,30.42,NNE,27,3.0,4.0,86,0.00,,CLR,0.00,VWS V14.01,2013-02-07 10:41:00,
2013-02-07 05:46:00,17.4,13.9,30.42,NE,44,2.0,6.0,86,0.00,,CLR,0.00,VWS V14.01,2013-02-07 10:46:00,
2013-02-07 05:51:00,17.4,13.7,30.43,NNE,26,2.0,6.0,85,0.00,,CLR,0.00,VWS V14.01,2013-02-07 10:51:00,
2013-02-07 05:56:00,17.3,13.8,30.43,NE,40,4.0,6.0,86,0.00,,CLR,0.00,VWS V14.01,2013-02-07 10:56:00,
2013-02-07 06:01:00,17.3,13.8,30.43,NE,40,3.0,4.0,86,0.00,,CLR,0.00,VWS V14.01,2013-02-07 11:01:00,
2013-02-07 06:06:00,17.3,13.8,30.43,NE,50,3.0,5.0,86,0.00,,CLR,0.00,VWS V14.01,2013-02-07 11:06:00,
2013-02-07 06:11:00,17.4,13.7,30.43,East,90,0.0,5.0,85,0.00,,CLR,0.00,VWS V14.01,2013-02-07 11:11:00,
2013-02-07 06:16:00,17.4,13.7,30.43,NNE,25,1.0,5.0,85,0.00,,CLR,0.00,VWS V14.01,2013-02-07 11:16:00,
2013-02-07 06:21:00,17.4,13.7,30.43,NE,39,2.0,5.0,85,0.00,,CLR,0.00,VWS V14.01,2013-02-07 11:21:00,
2013-02-07 06:26:00,17.3,13.6,30.43,NNE,30,1.0,5.0,85,0.00,,CLR,0.00,VWS V14.01,2013-02-07 11:26:00,
2013-02-07 06:31:00,17.3,13.6,30.43,NE,36,0.0,1.0,85,0.00,,CLR,0.00,VWS V14.01,2013-02-07 11:31:00,
2013-02-07 06:36:00,17.2,13.5,30.43,North,355,1.0,3.0,85,0.00,,CLR,0.00,VWS V14.01,2013-02-07 11:36:00,
2013-02-07 06:41:00,17.1,13.4,30.44,NNE,30,1.0,3.0,85,0.00,,CLR,0.00,VWS V14.01,2013-02-07 11:41:00,
2013-02-07 06:46:00,17.1,13.4,30.44,NE,40,2.0,4.0,85,0.00,,CLR,0.00,VWS V14.01,2013-02-07 11:46:00,
2013-02-07 06:51:00,17.1,13.6,30.44,NNE,27,1.0,5.0,86,0.00,,CLR,0.00,VWS V14.01,2013-02-07 11:51:00,
2013-02-07 06:56:00,17.1,13.6,30.43,NNE,24,2.0,5.0,86,0.00,,CLR,0.00,VWS V14.01,2013-02-07 11:56:00,
2013-02-07 07:01:00,17.1,13.6,30.43,NNE,32,2.0,4.0,86,0.00,,CLR,0.00,VWS V14.01,2013-02-07 12:01:00,
2013-02-07 07:06:00,17.1,13.6,30.44,NE,37,0.0,4.0,86,0.00,,CLR,0.00,VWS V14.01,2013-02-07 12:06:00,
2013-02-07 07:11:00,17.1,13.6,30.44,NE,44,0.0,4.0,86,0.00,,CLR,0.00,VWS V14.01,2013-02-07 12:11:00,
2013-02-07 07:16:00,17.1,13.6,30.44,NE,36,0.0,4.0,86,0.00,,CLR,0.00,VWS V14.01,2013-02-07 12:16:00,
2013-02-07 07:21:00,17.2,13.7,30.45,NNE,32,1.0,4.0,86,0.00,,CLR,0.00,VWS V14.01,2013-02-07 12:21:00,
2013-02-07 07:26:00,17.2,13.7,30.45,NE,40,1.0,4.0,86,0.00,,CLR,0.00,VWS V14.01,2013-02-07 12:26:00,
2013-02-07 07:31:00,17.3,13.8,30.45,NE,41,1.0,1.0,86,0.00,,CLR,0.00,VWS V14.01,2013-02-07 12:31:00,
2013-02-07 07:36:00,17.5,14.0,30.45,NE,41,0.0,2.0,86,0.00,,CLR,0.00,VWS V14.01,2013-02-07 12:36:00,
2013-02-07 07:41:00,17.6,14.1,30.45,NNE,18,1.0,2.0,86,0.00,,CLR,0.00,VWS V14.01,2013-02-07 12:41:00,
2013-02-07 07:46:00,17.7,14.0,30.46,NE,53,0.0,3.0,85,0.00,,CLR,0.00,VWS V14.01,2013-02-07 12:46:00,
2013-02-07 07:51:00,17.9,14.2,30.46,NNE,29,2.0,3.0,85,0.00,,CLR,0.00,VWS V14.01,2013-02-07 12:51:00,
2013-02-07 07:56:00,18.1,14.4,30.45,NE,46,0.0,3.0,85,0.00,,CLR,0.00,VWS V14.01,2013-02-07 12:56:00,
2013-02-07 08:01:00,18.3,14.6,30.45,NE,39,0.0,0.0,85,0.00,,BKN110,0.00,VWS V14.01,2013-02-07 13:01:00,
2013-02-07 08:06:00,18.6,14.9,30.45,NNE,15,1.0,2.0,85,0.00,,BKN110,0.00,VWS V14.01,2013-02-07 13:06:00,
2013-02-07 08:11:00,18.9,15.1,30.45,NE,39,1.0,2.0,85,0.00,,BKN110,0.00,VWS V14.01,2013-02-07 13:11:00,
2013-02-07 08:16:00,18.9,14.9,30.45,NE,42,2.0,5.0,84,0.00,,BKN110,0.00,VWS V14.01,2013-02-07 13:16:00,
2013-02-07 08:21:00,19.0,15.0,30.45,NE,42,3.0,5.0,84,0.00,,BKN110,0.00,VWS V14.01,2013-02-07 13:21:00,
2013-02-07 08:26:00,19.0,15.0,30.46,NNE,27,3.0,6.0,84,0.00,,BKN110,0.00,VWS V14.01,2013-02-07 13:26:00,
2013-02-07 08:31:00,18.9,14.6,30.45,NE,46,0.0,3.0,83,0.00,,BKN110,0.00,VWS V14.01,2013-02-07 13:31:00,
2013-02-07 08:36:00,19.0,14.7,30.45,ENE,62,1.0,3.0,83,0.00,,BKN110,0.00,VWS V14.01,2013-02-07 13:36:00,
2013-02-07 08:41:00,19.2,14.9,30.45,NE,45,1.0,4.0,83,0.00,,BKN110,0.00,VWS V14.01,2013-02-07 13:41:00,
2013-02-07 08:46:00,19.5,15.2,30.45,NE,44,2.0,4.0,83,0.00,,BKN110,0.00,VWS V14.01,2013-02-07 13:46:00,
2013-02-07 08:51:00,19.5,14.9,30.44,NE,34,1.0,4.0,82,0.00,,BKN110,0.00,VWS V14.01,2013-02-07 13:51:00,
2013-02-07 08:56:00,19.7,15.4,30.45,NE,34,0.0,4.0,83,0.00,,BKN110,0.00,VWS V14.01,2013-02-07 13:56:00,
2013-02-07 09:01:00,20.1,15.8,30.46,NNE,25,2.0,3.0,83,0.00,,OVC110,0.00,VWS V14.01,2013-02-07 14:01:00,
2013-02-07 09:06:00,20.4,16.1,30.46,NNE,32,0.0,3.0,83,0.00,,OVC110,0.00,VWS V14.01,2013-02-07 14:06:00,
2013-02-07 09:11:00,20.6,16.0,30.46,NE,39,0.0,3.0,82,0.00,,OVC110,0.00,VWS V14.01,2013-02-07 14:11:00,
2013-02-07 09:16:00,20.8,15.9,30.45,East,86,0.0,3.0,81,0.00,,OVC110,0.00,VWS V14.01,2013-02-07 14:16:00,
2013-02-07 09:21:00,21.1,16.5,30.45,East,85,0.0,3.0,82,0.00,,OVC110,0.00,VWS V14.01,2013-02-07 14:21:00,
2013-02-07 09:26:00,21.5,16.6,30.46,East,85,0.0,3.0,81,0.00,,OVC110,0.00,VWS V14.01,2013-02-07 14:26:00,
2013-02-07 09:31:00,22.0,16.8,30.46,NE,37,0.0,1.0,80,0.00,,OVC110,0.00,VWS V14.01,2013-02-07 14:31:00,
2013-02-07 09:36:00,22.3,17.1,30.46,NNE,27,0.0,1.0,80,0.00,,OVC110,0.00,VWS V14.01,2013-02-07 14:36:00,
2013-02-07 09:41:00,22.6,17.1,30.46,East,86,0.0,2.0,79,0.00,,OVC110,0.00,VWS V14.01,2013-02-07 14:41:00,
2013-02-07 09:46:00,22.9,16.8,30.45,ESE,108,0.0,2.0,77,0.00,,OVC110,0.00,VWS V14.01,2013-02-07 14:46:00,
2013-02-07 09:51:00,23.4,17.3,30.45,ENE,72,1.0,2.0,77,0.00,,OVC110,0.00,VWS V14.01,2013-02-07 14:51:00,
2013-02-07 09:56:00,23.6,16.9,30.45,East,90,2.0,4.0,75,0.00,,OVC110,0.00,VWS V14.01,2013-02-07 14:56:00,
2013-02-07 10:01:00,23.6,16.9,30.45,ESE,116,2.0,2.0,75,0.00,,OVC095,0.00,VWS V14.01,2013-02-07 15:01:00,
2013-02-07 10:06:00,23.8,16.7,30.45,ENE,67,4.0,4.0,74,0.00,,OVC095,0.00,VWS V14.01,2013-02-07 15:06:00,
2013-02-07 10:11:00,23.7,16.3,30.45,SE,125,0.0,5.0,73,0.00,,OVC095,0.00,VWS V14.01,2013-02-07 15:11:00,
2013-02-07 10:16:00,23.8,16.4,30.45,SSE,155,2.0,5.0,73,0.00,,OVC095,0.00,VWS V14.01,2013-02-07 15:16:00,
2013-02-07 10:21:00,23.8,16.4,30.44,East,90,1.0,5.0,73,0.00,,OVC095,0.00,VWS V14.01,2013-02-07 15:21:00,
2013-02-07 10:26:00,24.0,16.6,30.44,East,87,2.0,5.0,73,0.00,,OVC095,0.00,VWS V14.01,2013-02-07 15:26:00,
2013-02-07 10:31:00,24.2,16.5,30.44,East,90,2.0,5.0,72,0.00,,OVC095,0.00,VWS V14.01,2013-02-07 15:31:00,
2013-02-07 10:36:00,24.4,16.7,30.44,East,101,0.0,5.0,72,0.00,,OVC095,0.00,VWS V14.01,2013-02-07 15:36:00,
2013-02-07 10:41:00,24.8,16.8,30.43,WNW,287,0.0,5.0,71,0.00,,OVC095,0.00,VWS V14.01,2013-02-07 15:41:00,
2013-02-07 10:46:00,24.9,16.5,30.43,East,81,2.0,7.0,70,0.00,,OVC095,0.00,VWS V14.01,2013-02-07 15:46:00,
2013-02-07 10:51:00,25.3,16.9,30.43,ENE,70,4.0,7.0,70,0.00,,OVC095,0.00,VWS V14.01,2013-02-07 15:51:00,
2013-02-07 10:56:00,25.1,16.4,30.43,NE,41,2.0,7.0,69,0.00,,OVC095,0.00,VWS V14.01,2013-02-07 15:56:00,
2013-02-07 11:01:00,25.4,17.0,30.43,East,96,2.0,3.0,70,0.00,,OVC090,0.00,VWS V14.01,2013-02-07 16:01:00,
2013-02-07 11:06:00,25.7,17.0,30.43,East,90,3.0,5.0,69,0.00,,OVC090,0.00,VWS V14.01,2013-02-07 16:06:00,
2013-02-07 11:11:00,26.2,17.4,30.43,ESE,108,6.0,6.0,69,0.00,,OVC090,0.00,VWS V14.01,2013-02-07 16:11:00,
2013-02-07 11:16:00,26.6,17.5,30.43,NE,46,4.0,6.0,68,0.00,,OVC090,0.00,VWS V14.01,2013-02-07 16:16:00,
2013-02-07 11:21:00,27.0,17.5,30.43,NE,34,3.0,6.0,67,0.00,,OVC090,0.00,VWS V14.01,2013-02-07 16:21:00,
2013-02-07 11:25:00,27.4,17.9,30.42,ENE,68,2.0,6.0,67,0.00,,OVC090,0.00,VWS V14.01,2013-02-07 16:25:00,
2013-02-07 11:31:00,27.8,17.6,30.42,ENE,58,2.0,3.0,65,0.00,,OVC090,0.00,VWS V14.01,2013-02-07 16:31:00,
2013-02-07 11:36:00,28.1,17.5,30.42,ENE,72,0.0,5.0,64,0.00,,OVC090,0.00,VWS V14.01,2013-02-07 16:36:00,
2013-02-07 11:40:00,28.6,18.0,30.41,ESE,103,4.0,5.0,64,0.00,,OVC090,0.00,VWS V14.01,2013-02-07 16:40:00,
2013-02-07 11:45:00,29.2,18.2,30.41,NE,35,4.0,5.0,63,0.00,,OVC090,0.00,VWS V14.01,2013-02-07 16:45:00,
2013-02-07 11:50:00,29.6,17.8,30.41,East,89,2.0,5.0,61,0.00,,OVC090,0.00,VWS V14.01,2013-02-07 16:50:00,
2013-02-07 11:55:00,29.9,17.7,30.40,East,86,3.0,6.0,60,0.00,,OVC090,0.00,VWS V14.01,2013-02-07 16:55:00,
2013-02-07 12:00:00,30.2,18.0,30.40,ENE,71,2.0,5.0,60,0.00,,FEW070,0.00,VWS V14.01,2013-02-07 17:00:00,
2013-02-07 12:05:00,30.5,18.3,30.40,NNE,32,0.0,5.0,60,0.00,,FEW070,0.00,VWS V14.01,2013-02-07 17:05:00,
2013-02-07 12:10:00,30.9,18.3,30.40,East,86,3.0,5.0,59,0.00,,FEW070,0.00,VWS V14.01,2013-02-07 17:10:00,
2013-02-07 12:15:00,31.1,18.5,30.39,NE,53,0.0,5.0,59,0.00,,FEW070,0.00,VWS V14.01,2013-02-07 17:15:00,
2013-02-07 12:20:00,31.6,18.5,30.39,ESE,103,4.0,5.0,58,0.00,,FEW070,0.00,VWS V14.01,2013-02-07 17:20:00,
2013-02-07 12:25:00,31.8,18.7,30.39,SSE,148,1.0,5.0,58,0.00,,FEW070,0.00,VWS V14.01,2013-02-07 17:25:00,
2013-02-07 12:30:00,32.0,18.5,30.38,SE,128,2.0,2.0,57,0.00,,FEW070,0.00,VWS V14.01,2013-02-07 17:30:00,
2013-02-07 12:35:00,32.1,18.6,30.38,SSE,167,1.0,5.0,57,0.00,,FEW070,0.00,VWS V14.01,2013-02-07 17:35:00,
2013-02-07 12:40:00,32.5,19.0,30.37,SSE,167,0.0,5.0,57,0.00,,FEW070,0.00,VWS V14.01,2013-02-07 17:40:00,
2013-02-07 12:45:00,32.6,19.1,30.37,SW,228,1.0,5.0,57,0.00,,FEW070,0.00,VWS V14.01,2013-02-07 17:45:00,
2013-02-07 12:50:00,32.8,19.3,30.37,ENE,59,0.0,6.0,57,0.00,,FEW070,0.00,VWS V14.01,2013-02-07 17:50:00,
2013-02-07 12:55:00,32.9,19.8,30.37,East,100,1.0,6.0,58,0.00,,FEW070,0.00,VWS V14.01,2013-02-07 17:55:00,
2013-02-07 13:00:00,33.1,19.5,30.37,East,100,0.0,1.0,57,0.00,,CLR,0.00,VWS V14.01,2013-02-07 18:00:00,
2013-02-07 13:05:00,33.2,19.2,30.36,WSW,240,2.0,8.0,56,0.00,,CLR,0.00,VWS V14.01,2013-02-07 18:05:00,
2013-02-07 13:10:00,33.3,19.7,30.36,East,98,2.0,8.0,57,0.00,,CLR,0.00,VWS V14.01,2013-02-07 18:10:00,
2013-02-07 13:15:00,33.3,19.7,30.35,East,83,2.0,8.0,57,0.00,,CLR,0.00,VWS V14.01,2013-02-07 18:15:00,
2013-02-07 13:20:00,33.8,20.2,30.35,SE,139,1.0,8.0,57,0.00,,CLR,0.00,VWS V14.01,2013-02-07 18:20:00,
2013-02-07 13:25:00,33.9,19.9,30.35,ESE,102,3.0,8.0,56,0.00,,CLR,0.00,VWS V14.01,2013-02-07 18:25:00,
2013-02-07 13:30:00,34.3,20.7,30.35,SW,235,1.0,2.0,57,0.00,,CLR,0.00,VWS V14.01,2013-02-07 18:30:00,
2013-02-07 13:35:00,34.4,19.9,30.35,SW,224,0.0,4.0,55,0.00,,CLR,0.00,VWS V14.01,2013-02-07 18:35:00,
2013-02-07 13:40:00,34.5,20.0,30.35,ENE,58,1.0,7.0,55,0.00,,CLR,0.00,VWS V14.01,2013-02-07 18:40:00,
2013-02-07 13:45:00,34.3,20.2,30.35,SW,215,0.0,7.0,56,0.00,,CLR,0.00,VWS V14.01,2013-02-07 18:45:00,
2013-02-07 13:50:00,34.4,19.9,30.35,WSW,248,1.0,9.0,55,0.00,,CLR,0.00,VWS V14.01,2013-02-07 18:50:00,
2013-02-07 13:55:00,34.3,20.2,30.34,SSW,195,0.0,9.0,56,0.00,,CLR,0.00,VWS V14.01,2013-02-07 18:55:00,
2013-02-07 14:00:00,34.2,20.6,30.34,SW,235,3.0,5.0,57,0.00,,SCT110,0.00,VWS V14.01,2013-02-07 19:00:00,
2013-02-07 14:05:00,34.2,20.6,30.34,SSW,195,2.0,5.0,57,0.00,,SCT110,0.00,VWS V14.01,2013-02-07 19:05:00,
2013-02-07 14:10:00,34.1,20.5,30.33,SW,235,0.0,7.0,57,0.00,,SCT110,0.00,VWS V14.01,2013-02-07 19:10:00,
2013-02-07 14:15:00,34.3,20.7,30.33,SSW,211,1.0,7.0,57,0.00,,SCT110,0.00,VWS V14.01,2013-02-07 19:15:00,
2013-02-07 14:20:00,34.3,20.2,30.33,SSW,195,1.0,7.0,56,0.00,,SCT110,0.00,VWS V14.01,2013-02-07 19:20:00,
2013-02-07 14:25:00,34.5,20.4,30.33,SSW,195,4.0,7.0,56,0.00,,SCT110,0.00,VWS V14.01,2013-02-07 19:25:00,
2013-02-07 14:30:00,34.4,20.3,30.32,SW,231,1.0,1.0,56,0.00,,SCT110,0.00,VWS V14.01,2013-02-07 19:30:00,
2013-02-07 14:35:00,34.5,20.0,30.32,SSW,195,2.0,4.0,55,0.00,,SCT110,0.00,VWS V14.01,2013-02-07 19:35:00,
2013-02-07 14:40:00,34.7,20.6,30.32,SSW,194,3.0,5.0,56,0.00,,SCT110,0.00,VWS V14.01,2013-02-07 19:40:00,
2013-02-07 14:45:00,35.4,20.9,30.32,SW,218,2.0,9.0,55,0.00,,SCT110,0.00,VWS V14.01,2013-02-07 19:45:00,
2013-02-07 14:50:00,35.7,20.7,30.31,SSW,194,1.0,9.0,54,0.00,,SCT110,0.00,VWS V14.01,2013-02-07 19:50:00,
2013-02-07 14:55:00,35.9,20.9,30.31,WSW,252,1.0,9.0,54,0.00,,SCT110,0.00,VWS V14.01,2013-02-07 19:55:00,
2013-02-07 15:00:00,35.8,20.8,30.31,East,86,0.0,0.0,54,0.00,,BKN110,0.00,VWS V14.01,2013-02-07 20:00:00,
2013-02-07 15:05:00,35.8,20.8,30.31,ENE,73,1.0,4.0,54,0.00,,BKN110,0.00,VWS V14.01,2013-02-07 20:05:00,
2013-02-07 15:10:00,35.7,20.7,30.30,SSW,207,1.0,5.0,54,0.00,,BKN110,0.00,VWS V14.01,2013-02-07 20:10:00,
2013-02-07 15:15:00,35.7,20.7,30.30,SE,128,0.0,5.0,54,0.00,,BKN110,0.00,VWS V14.01,2013-02-07 20:15:00,
2013-02-07 15:20:00,35.9,20.5,30.30,ESE,107,1.0,5.0,53,0.00,,BKN110,0.00,VWS V14.01,2013-02-07 20:20:00,
2013-02-07 15:25:00,36.4,21.4,30.30,South,191,0.0,5.0,54,0.00,,BKN110,0.00,VWS V14.01,2013-02-07 20:25:00,
2013-02-07 15:30:00,36.7,21.6,30.30,East,80,4.0,4.0,54,0.00,,BKN110,0.00,VWS V14.01,2013-02-07 20:30:00,
2013-02-07 15:35:00,36.7,21.2,30.29,South,191,0.0,4.0,53,0.00,,BKN110,0.00,VWS V14.01,2013-02-07 20:35:00,
2013-02-07 15:40:00,37.2,21.2,30.29,South,191,3.0,5.0,52,0.00,,BKN110,0.00,VWS V14.01,2013-02-07 20:40:00,
2013-02-07 15:45:00,37.2,21.2,30.29,SSW,193,4.0,10.0,52,0.00,,BKN110,0.00,VWS V14.01,2013-02-07 20:45:00,
2013-02-07 15:50:00,37.1,21.1,30.29,SSW,193,3.0,10.0,52,0.00,,BKN110,0.00,VWS V14.01,2013-02-07 20:50:00,
2013-02-07 15:55:00,37.1,21.1,30.29,SSW,193,1.0,10.0,52,0.00,,BKN110,0.00,VWS V14.01,2013-02-07 20:55:00,
2013-02-07 16:00:00,37.2,21.2,30.29,SSW,193,6.0,6.0,52,0.00,,CLR,0.00,VWS V14.01,2013-02-07 21:00:00,
2013-02-07 16:05:00,36.7,20.8,30.29,SSW,193,4.0,8.0,52,0.00,,CLR,0.00,VWS V14.01,2013-02-07 21:05:00,
2013-02-07 16:10:00,36.7,21.2,30.29,SSW,193,8.0,12.0,53,0.00,,CLR,0.00,VWS V14.01,2013-02-07 21:10:00,
2013-02-07 16:15:00,36.6,21.1,30.29,SSW,193,7.0,12.0,53,0.00,,CLR,0.00,VWS V14.01,2013-02-07 21:15:00,
2013-02-07 16:20:00,36.5,21.0,30.29,SSW,193,3.0,12.0,53,0.00,,CLR,0.00,VWS V14.01,2013-02-07 21:20:00,
2013-02-07 16:25:00,36.3,21.3,30.29,SSW,193,5.0,12.0,54,0.00,,CLR,0.00,VWS V14.01,2013-02-07 21:25:00,
2013-02-07 16:30:00,36.1,21.1,30.29,SSW,193,2.0,4.0,54,0.00,,CLR,0.00,VWS V14.01,2013-02-07 21:30:00,
2013-02-07 16:35:00,35.8,20.8,30.28,SSW,193,5.0,7.0,54,0.00,,CLR,0.00,VWS V14.01,2013-02-07 21:35:00,
2013-02-07 16:40:00,35.5,21.0,30.28,SSW,193,2.0,7.0,55,0.00,,CLR,0.00,VWS V14.01,2013-02-07 21:40:00,
2013-02-07 16:45:00,35.3,20.8,30.28,SSW,193,2.0,9.0,55,0.00,,CLR,0.00,VWS V14.01,2013-02-07 21:45:00,
2013-02-07 16:50:00,35.2,20.7,30.29,SSW,193,2.0,9.0,55,0.00,,CLR,0.00,VWS V14.01,2013-02-07 21:50:00,
2013-02-07 16:55:00,35.0,20.9,30.29,SSW,193,1.0,9.0,56,0.00,,CLR,0.00,VWS V14.01,2013-02-07 21:55:00,
2013-02-07 17:00:00,34.8,21.1,30.28,SSW,193,1.0,2.0,57,0.00,,FEW039,0.00,VWS V14.01,2013-02-07 22:00:00,
2013-02-07 17:05:00,34.7,21.0,30.29,SSW,193,0.0,7.0,57,0.00,,FEW039,0.00,VWS V14.01,2013-02-07 22:05:00,
2013-02-07 17:10:00,34.6,20.5,30.29,SSW,193,2.0,7.0,56,0.00,,FEW039,0.00,VWS V14.01,2013-02-07 22:10:00,
2013-02-07 17:15:00,34.5,20.9,30.29,SSW,193,0.0,7.0,57,0.00,,FEW039,0.00,VWS V14.01,2013-02-07 22:15:00,
2013-02-07 17:20:00,34.3,21.1,30.29,SSW,193,1.0,7.0,58,0.00,,FEW039,0.00,VWS V14.01,2013-02-07 22:20:00,
2013-02-07 17:25:00,34.2,21.0,30.29,SSW,193,4.0,7.0,58,0.00,,FEW039,0.00,VWS V14.01,2013-02-07 22:25:00,
2013-02-07 17:30:00,34.2,20.6,30.29,SSW,193,7.0,10.0,57,0.00,,FEW039,0.00,VWS V14.01,2013-02-07 22:30:00,
2013-02-07 17:35:00,34.1,20.5,30.29,SSW,193,6.0,10.0,57,0.00,,FEW039,0.00,VWS V14.01,2013-02-07 22:35:00,
2013-02-07 17:40:00,34.1,20.1,30.29,SSW,193,2.0,10.0,56,0.00,,FEW039,0.00,VWS V14.01,2013-02-07 22:40:00,
2013-02-07 17:45:00,34.1,20.5,30.30,SSW,193,0.0,10.0,57,0.00,,FEW039,0.00,VWS V14.01,2013-02-07 22:45:00,
2013-02-07 17:50:00,33.9,19.9,30.30,SSW,193,3.0,10.0,56,0.00,,FEW039,0.00,VWS V14.01,2013-02-07 22:50:00,
2013-02-07 17:55:00,33.9,19.9,30.30,SSW,193,2.0,10.0,56,0.00,,FEW039,0.00,VWS V14.01,2013-02-07 22:55:00,
2013-02-07 18:00:00,33.7,19.7,30.30,SSW,193,4.0,4.0,56,0.00,,SCT100,0.00,VWS V14.01,2013-02-07 23:00:00,
2013-02-07 18:05:00,33.7,19.3,30.30,SSW,193,1.0,5.0,55,0.00,,SCT100,0.00,VWS V14.01,2013-02-07 23:05:00,
2013-02-07 18:10:00,33.7,19.3,30.30,SSW,193,4.0,7.0,55,0.00,,SCT100,0.00,VWS V14.01,2013-02-07 23:10:00,
2013-02-07 18:15:00,33.6,19.2,30.30,SSW,193,1.0,7.0,55,0.00,,SCT100,0.00,VWS V14.01,2013-02-07 23:15:00,
2013-02-07 18:20:00,33.6,19.2,30.30,SSW,193,1.0,7.0,55,0.00,,SCT100,0.00,VWS V14.01,2013-02-07 23:20:00,
2013-02-07 18:25:00,33.6,19.2,30.30,SSW,193,2.0,7.0,55,0.00,,SCT100,0.00,VWS V14.01,2013-02-07 23:25:00,
2013-02-07 18:30:00,33.5,19.5,30.30,SSW,193,2.0,3.0,56,0.00,,SCT100,0.00,VWS V14.01,2013-02-07 23:30:00,
2013-02-07 18:35:00,33.5,19.5,30.30,SSW,193,1.0,4.0,56,0.00,,SCT100,0.00,VWS V14.01,2013-02-07 23:35:00,
2013-02-07 18:40:00,33.4,19.4,30.30,SSW,193,0.0,4.0,56,0.00,,SCT100,0.00,VWS V14.01,2013-02-07 23:40:00,
2013-02-07 18:45:00,33.4,19.4,30.30,SSW,193,0.0,4.0,56,0.00,,SCT100,0.00,VWS V14.01,2013-02-07 23:45:00,
2013-02-07 18:50:00,33.3,18.9,30.30,SSW,193,3.0,4.0,55,0.00,,SCT100,0.00,VWS V14.01,2013-02-07 23:50:00,
2013-02-07 18:55:00,33.3,19.3,30.30,SSW,193,6.0,6.0,56,0.00,,SCT100,0.00,VWS V14.01,2013-02-07 23:55:00,
2013-02-07 19:00:00,33.2,19.2,30.30,SSW,193,4.0,5.0,56,0.00,,OVC100,0.00,VWS V14.01,2013-02-08 00:00:00,
2013-02-07 19:05:00,33.2,18.8,30.31,SSW,193,0.0,5.0,55,0.00,,OVC100,0.00,VWS V14.01,2013-02-08 00:05:00,
2013-02-07 19:10:00,33.2,18.8,30.31,SSW,193,0.0,5.0,55,0.00,,OVC100,0.00,VWS V14.01,2013-02-08 00:10:00,
2013-02-07 19:15:00,33.2,18.4,30.31,SSW,193,1.0,7.0,54,0.00,,OVC100,0.00,VWS V14.01,2013-02-08 00:15:00,
2013-02-07 19:20:00,33.1,18.3,30.31,SSW,193,2.0,7.0,54,0.00,,OVC100,0.00,VWS V14.01,2013-02-08 00:20:00,
2013-02-07 19:25:00,33.1,18.3,30.31,SSW,193,0.0,7.0,54,0.00,,OVC100,0.00,VWS V14.01,2013-02-08 00:25:00,
2013-02-07 19:30:00,33.1,18.7,30.31,SSW,193,1.0,1.0,55,0.00,,OVC100,0.00,VWS V14.01,2013-02-08 00:30:00,
2013-02-07 19:35:00,33.0,18.6,30.31,SSW,193,2.0,4.0,55,0.00,,OVC100,0.00,VWS V14.01,2013-02-08 00:35:00,
2013-02-07 19:40:00,33.0,18.2,30.31,SSW,193,3.0,5.0,54,0.00,,OVC100,0.00,VWS V14.01,2013-02-08 00:40:00,
2013-02-07 19:45:00,33.0,18.2,30.30,SSW,193,3.0,5.0,54,0.00,,OVC100,0.00,VWS V14.01,2013-02-08 00:45:00,
2013-02-07 19:50:00,33.0,18.2,30.30,SSW,193,1.0,6.0,54,0.00,,OVC100,0.00,VWS V14.01,2013-02-08 00:50:00,
2013-02-07 19:55:00,33.0,18.2,30.30,SSW,193,4.0,9.0,54,0.00,,OVC100,0.00,VWS V14.01,2013-02-08 00:55:00,
2013-02-07 20:00:00,33.0,18.2,30.30,SSW,193,4.0,4.0,54,0.00,,OVC039,0.00,VWS V14.01,2013-02-08 01:00:00,
2013-02-07 20:05:00,32.9,18.1,30.30,SSW,193,1.0,4.0,54,0.00,,OVC039,0.00,VWS V14.01,2013-02-08 01:05:00,
2013-02-07 20:10:00,32.9,18.1,30.29,SSW,193,2.0,4.0,54,0.00,,OVC039,0.00,VWS V14.01,2013-02-08 01:10:00,
2013-02-07 20:15:00,32.9,18.1,30.29,SSW,193,1.0,5.0,54,0.00,,OVC039,0.00,VWS V14.01,2013-02-08 01:15:00,
2013-02-07 20:20:00,32.7,17.9,30.29,SSW,193,0.0,5.0,54,0.00,,OVC039,0.00,VWS V14.01,2013-02-08 01:20:00,
2013-02-07 20:25:00,32.5,18.1,30.29,SSW,193,1.0,5.0,55,0.00,,OVC039,0.00,VWS V14.01,2013-02-08 01:25:00,
2013-02-07 20:30:00,32.5,17.7,30.28,ESE,113,1.0,1.0,54,0.00,,OVC039,0.00,VWS V14.01,2013-02-08 01:30:00,
2013-02-07 20:35:00,32.5,17.7,30.28,SSW,193,3.0,5.0,54,0.00,,OVC039,0.00,VWS V14.01,2013-02-08 01:35:00,
2013-02-07 20:40:00,32.5,18.1,30.28,ESE,110,0.0,6.0,55,0.00,,OVC039,0.00,VWS V14.01,2013-02-08 01:40:00,
2013-02-07 20:45:00,32.4,17.6,30.28,East,79,6.0,8.0,54,0.00,,OVC039,0.00,VWS V14.01,2013-02-08 01:45:00,
2013-02-07 20:50:00,32.5,17.7,30.27,East,80,3.0,11.0,54,0.00,,OVC039,0.00,VWS V14.01,2013-02-08 01:50:00,
2013-02-07 20:55:00,32.5,17.7,30.28,SE,128,2.0,11.0,54,0.00,,OVC039,0.00,VWS V14.01,2013-02-08 01:55:00,
2013-02-07 21:00:00,32.5,17.7,30.28,East,88,5.0,5.0,54,0.00,,OVC039,0.00,VWS V14.01,2013-02-08 02:00:00,
2013-02-07 21:05:00,32.6,17.4,30.28,West,268,4.0,7.0,53,0.00,,OVC039,0.00,VWS V14.01,2013-02-08 02:05:00,
2013-02-07 21:10:00,32.6,17.8,30.28,ENE,78,2.0,7.0,54,0.00,,OVC039,0.00,VWS V14.01,2013-02-08 02:10:00,
2013-02-07 21:15:00,32.6,17.4,30.28,ESE,113,3.0,8.0,53,0.00,,OVC039,0.00,VWS V14.01,2013-02-08 02:15:00,
2013-02-07 21:20:00,32.7,17.5,30.28,SE,139,3.0,10.0,53,0.00,,OVC039,0.00,VWS V14.01,2013-02-08 02:20:00,
2013-02-07 21:25:00,32.6,17.4,30.28,SSE,158,6.0,10.0,53,0.00,,OVC039,0.00,VWS V14.01,2013-02-08 02:25:00,
2013-02-07 21:30:00,32.6,17.4,30.28,ESE,110,4.0,4.0,53,0.00,,OVC039,0.00,VWS V14.01,2013-02-08 02:30:00,
2013-02-07 21:35:00,32.7,17.5,30.27,East,79,9.0,11.0,53,0.00,,OVC039,0.00,VWS V14.01,2013-02-08 02:35:00,
2013-02-07 21:40:00,32.6,17.4,30.27,South,169,1.0,11.0,53,0.00,,OVC039,0.00,VWS V14.01,2013-02-08 02:40:00,
2013-02-07 21:45:00,32.7,17.5,30.27,ESE,104,5.0,11.0,53,0.00,,OVC039,0.00,VWS V14.01,2013-02-08 02:45:00,
2013-02-07 21:50:00,32.7,17.5,30.27,SE,131,2.0,11.0,53,0.00,,OVC039,0.00,VWS V14.01,2013-02-08 02:50:00,
2013-02-07 21:55:00,32.7,17.5,30.27,ENE,65,2.0,11.0,53,0.00,,OVC039,0.00,VWS V14.01,2013-02-08 02:55:00,
2013-02-07 22:00:00,32.7,17.9,30.27,ESE,113,5.0,6.0,54,0.00,,BKN041,0.00,VWS V14.01,2013-02-08 03:00:00,
2013-02-07 22:05:00,32.7,17.9,30.26,East,95,0.0,7.0,54,0.00,,BKN041,0.00,VWS V14.01,2013-02-08 03:05:00,
2013-02-07 22:10:00,32.7,17.9,30.26,ESE,107,11.0,11.0,54,0.00,,BKN041,0.00,VWS V14.01,2013-02-08 03:10:00,
2013-02-07 22:15:00,32.7,17.9,30.26,ESE,104,3.0,11.0,54,0.00,,BKN041,0.00,VWS V14.01,2013-02-08 03:15:00,
2013-02-07 22:20:00,32.7,17.9,30.26,SW,229,2.0,11.0,54,0.00,,BKN041,0.00,VWS V14.01,2013-02-08 03:20:00,
2013-02-07 22:25:00,32.7,17.9,30.26,East,80,3.0,11.0,54,0.00,,BKN041,0.00,VWS V14.01,2013-02-08 03:25:00,
2013-02-07 22:30:00,32.7,18.3,30.25,East,93,6.0,6.0,55,0.00,,BKN041,0.00,VWS V14.01,2013-02-08 03:30:00,
2013-02-07 22:35:00,32.7,18.3,30.25,SSE,165,2.0,8.0,55,0.00,,BKN041,0.00,VWS V14.01,2013-02-08 03:35:00,
2013-02-07 22:40:00,32.7,18.3,30.25,East,91,4.0,8.0,55,0.00,,BKN041,0.00,VWS V14.01,2013-02-08 03:40:00,
2013-02-07 22:45:00,32.6,19.1,30.25,WSW,242,1.0,8.0,57,0.00,,BKN041,0.00,VWS V14.01,2013-02-08 03:45:00,
2013-02-07 22:50:00,32.6,19.1,30.25,ENE,77,5.0,8.0,57,0.00,,BKN041,0.00,VWS V14.01,2013-02-08 03:50:00,
2013-02-07 22:55:00,32.5,19.0,30.25,East,84,2.0,8.0,57,0.00,,BKN041,0.00,VWS V14.01,2013-02-08 03:55:00,
2013-02-07 23:00:00,32.5,19.4,30.25,ESE,110,3.0,4.0,58,0.00,,OVC037,0.00,VWS V14.01,2013-02-08 04:00:00,
2013-02-07 23:05:00,32.5,19.4,30.25,ESE,115,5.0,7.0,58,0.00,,OVC037,0.00,VWS V14.01,2013-02-08 04:05:00,
2013-02-07 23:10:00,32.5,19.8,30.25,ENE,67,3.0,7.0,59,0.00,,OVC037,0.00,VWS V14.01,2013-02-08 04:10:00,
2013-02-07 23:15:00,32.5,20.2,30.25,ENE,76,5.0,9.0,60,0.00,,OVC037,0.00,VWS V14.01,2013-02-08 04:15:00,
2013-02-07 23:20:00,32.4,20.1,30.24,East,101,3.0,10.0,60,0.00,,OVC037,0.00,VWS V14.01,2013-02-08 04:20:00,
2013-02-07 23:25:00,32.4,20.5,30.23,East,81,3.0,10.0,61,0.00,,OVC037,0.00,VWS V14.01,2013-02-08 04:25:00,
2013-02-07 23:30:00,32.3,20.8,30.23,East,94,3.0,3.0,62,0.00,,OVC037,0.00,VWS V14.01,2013-02-08 04:30:00,
2013-02-07 23:35:00,32.2,21.0,30.23,ENE,63,1.0,4.0,63,0.00,,OVC037,0.00,VWS V14.01,2013-02-08 04:35:00,
2013-02-07 23:40:00,32.1,21.3,30.23,ENE,69,2.0,5.0,64,0.00,,OVC037,0.00,VWS V14.01,2013-02-08 04:40:00,
2013-02-07 23:45:00,32.0,21.2,30.23,ENE,64,2.0,9.0,64,0.00,,OVC037,0.00,VWS V14.01,2013-02-08 04:45:00,
2013-02-07 23:50:00,32.0,21.6,30.22,East,101,0.0,9.0,65,0.00,,OVC037,0.00,VWS V14.01,2013-02-08 04:50:00,
2013-02-07 23:55:00,31.9,21.9,30.22,East,89,3.0,9.0,66,0.00,,OVC037,0.00,VWS V14.01,2013-02-08 04:55:00,